RYR90TC LOWW-EDDK

Flight info

Callsign RYR90TC
Flight time 1h 11m
Altitude 34000
Route BUWUT DCT DITIS DCT RAPET T843 VELIS/N0440F320 DCT MASEK T841 ERNEP ERNEP1B
Aircraft A320/M-SDE3FGHIRWY/LB1

Departure

Time 2026-04-20 12:32
Airport Vienna International Airport (LOWW)

Arrival

Time 2026-04-20 13:44
Airport Cologne Bonn Airport (EDDK)
Time Latitude Longitude Altitude Speed Heading
2026-04-20 11:59 48.12086 16.55665 614 ft 0 kts 116°
2026-04-20 12:23 48.12097 16.55634 623 ft 4 kts 123°
2026-04-20 12:23 48.12114 16.55603 626 ft 4 kts 148°
2026-04-20 12:24 48.12133 16.55596 623 ft 2 kts 205°
2026-04-20 12:24 48.12134 16.55596 624 ft 0 kts 206°
2026-04-20 12:26 48.12131 16.55594 623 ft 3 kts 206°
2026-04-20 12:26 48.12084 16.55560 618 ft 10 kts 206°
2026-04-20 12:26 48.12010 16.55506 616 ft 12 kts 206°
2026-04-20 12:27 48.11939 16.55454 615 ft 11 kts 206°
2026-04-20 12:27 48.11872 16.55431 610 ft 9 kts 189°
2026-04-20 12:27 48.11815 16.55434 624 ft 8 kts 148°
2026-04-20 12:27 48.11773 16.55543 616 ft 17 kts 116°
2026-04-20 12:28 48.11711 16.55734 619 ft 22 kts 116°
2026-04-20 12:28 48.11647 16.55933 612 ft 20 kts 116°
2026-04-20 12:28 48.11586 16.56119 618 ft 21 kts 116°
2026-04-20 12:28 48.11513 16.56343 615 ft 26 kts 115°
2026-04-20 12:29 48.11432 16.56591 613 ft 27 kts 116°
2026-04-20 12:29 48.11347 16.56851 617 ft 28 kts 116°
2026-04-20 12:29 48.11258 16.57121 618 ft 30 kts 118°
2026-04-20 12:29 48.11188 16.57335 613 ft 20 kts 115°
2026-04-20 12:30 48.11132 16.57512 618 ft 18 kts 115°
2026-04-20 12:30 48.11079 16.57644 610 ft 11 kts 148°
2026-04-20 12:30 48.11014 16.57622 610 ft 9 kts 206°
2026-04-20 12:30 48.10957 16.57579 610 ft 9 kts 207°
2026-04-20 12:31 48.10919 16.57523 613 ft 6 kts 267°
2026-04-20 12:31 48.10928 16.57495 617 ft 0 kts 298°
2026-04-20 12:31 48.10945 16.57442 613 ft 24 kts 296°
2026-04-20 12:31 48.11133 16.56873 616 ft 95 kts 296°
2026-04-20 12:32 48.11505 16.55722 621 ft 149 kts 295°
2026-04-20 12:32 48.11980 16.54244 1093 ft 154 kts 295°
2026-04-20 12:32 48.12127 16.52651 1786 ft 161 kts 264°
2026-04-20 12:32 48.11919 16.50916 2248 ft 177 kts 265°
2026-04-20 12:33 48.11720 16.48993 2611 ft 196 kts 265°
2026-04-20 12:33 48.11601 16.46945 3106 ft 205 kts 278°
2026-04-20 12:33 48.11830 16.44710 3463 ft 230 kts 281°
2026-04-20 12:33 48.12096 16.42267 4139 ft 242 kts 281°
2026-04-20 12:34 48.12364 16.39763 5080 ft 245 kts 281°
2026-04-20 12:34 48.12631 16.37242 6033 ft 247 kts 280°
2026-04-20 12:34 48.12900 16.34696 6946 ft 248 kts 280°
2026-04-20 12:34 48.13167 16.32126 7810 ft 252 kts 279°
2026-04-20 12:35 48.13438 16.29519 8650 ft 255 kts 279°
2026-04-20 12:35 48.13713 16.26878 9514 ft 259 kts 279°
2026-04-20 12:35 48.14008 16.24206 10327 ft 262 kts 283°
2026-04-20 12:35 48.14692 16.21709 11081 ft 266 kts 301°
2026-04-20 12:36 48.15955 16.19597 11605 ft 285 kts 320°
2026-04-20 12:36 48.17764 16.18072 11825 ft 311 kts 330°
2026-04-20 12:36 48.19754 16.16616 12318 ft 323 kts 331°
2026-04-20 12:36 48.21787 16.15130 13037 ft 327 kts 330°
2026-04-20 12:37 48.23842 16.13625 13849 ft 331 kts 330°
2026-04-20 12:37 48.25921 16.12093 14546 ft 334 kts 330°
2026-04-20 12:37 48.28019 16.10542 15215 ft 338 kts 329°
2026-04-20 12:37 48.30133 16.08974 15875 ft 341 kts 329°
2026-04-20 12:38 48.32271 16.07386 16512 ft 344 kts 329°
2026-04-20 12:38 48.34422 16.05785 17165 ft 347 kts 329°
2026-04-20 12:38 48.36596 16.04165 17790 ft 350 kts 329°
2026-04-20 12:38 48.38790 16.02529 18404 ft 354 kts 329°
2026-04-20 12:39 48.43233 15.99205 19520 ft 360 kts 329°
2026-04-20 12:39 48.45485 15.97523 20086 ft 363 kts 329°
2026-04-20 12:39 48.47761 15.95822 20617 ft 367 kts 329°
2026-04-20 12:40 48.50054 15.94104 21166 ft 370 kts 329°
2026-04-20 12:40 48.51616 15.92930 21535 ft 372 kts 329°
2026-04-20 12:40 48.53908 15.91201 22075 ft 374 kts 328°
2026-04-20 12:40 48.56085 15.89075 22585 ft 373 kts 318°
2026-04-20 12:41 48.57973 15.86398 23097 ft 372 kts 308°
2026-04-20 12:41 48.59525 15.83280 23578 ft 373 kts 302°
2026-04-20 12:41 48.60988 15.80021 23998 ft 376 kts 302°
2026-04-20 12:41 48.62457 15.76757 24464 ft 376 kts 302°
2026-04-20 12:42 48.63932 15.73483 24902 ft 377 kts 302°
2026-04-20 12:42 48.65413 15.70192 25327 ft 379 kts 302°
2026-04-20 12:42 48.66895 15.66895 25717 ft 381 kts 302°
2026-04-20 12:42 48.68388 15.63569 26096 ft 384 kts 302°
2026-04-20 12:43 48.69893 15.60202 26407 ft 387 kts 301°
2026-04-20 12:43 48.71236 15.56663 26748 ft 389 kts 297°
2026-04-20 12:43 48.72551 15.53068 27114 ft 391 kts 297°
2026-04-20 12:43 48.73876 15.49461 27486 ft 393 kts 297°
2026-04-20 12:44 48.75213 15.45827 27838 ft 395 kts 297°
2026-04-20 12:44 48.76551 15.42181 28213 ft 396 kts 298°
2026-04-20 12:44 48.77890 15.38517 28585 ft 397 kts 297°
2026-04-20 12:44 48.79228 15.34843 28931 ft 399 kts 297°
2026-04-20 12:45 48.80600 15.31176 29261 ft 401 kts 301°
2026-04-20 12:45 48.82208 15.27698 29581 ft 403 kts 304°
2026-04-20 12:45 48.83848 15.24234 29883 ft 405 kts 304°
2026-04-20 12:45 48.85497 15.20758 30150 ft 407 kts 304°
2026-04-20 12:46 48.87152 15.17259 30365 ft 409 kts 304°
2026-04-20 12:46 48.88816 15.13742 30572 ft 411 kts 304°
2026-04-20 12:46 48.90489 15.10210 30774 ft 413 kts 304°
2026-04-20 12:46 48.92192 15.06680 30968 ft 415 kts 305°
2026-04-20 12:47 48.93915 15.03168 31260 ft 414 kts 305°
2026-04-20 12:47 48.95643 14.99664 31558 ft 414 kts 305°
2026-04-20 12:47 48.97365 14.96162 31828 ft 414 kts 305°
2026-04-20 12:47 48.99085 14.92649 32094 ft 414 kts 305°
2026-04-20 12:48 49.00804 14.89126 32371 ft 415 kts 305°
2026-04-20 12:48 49.02527 14.85580 32531 ft 418 kts 305°
2026-04-20 12:48 49.04257 14.82007 32755 ft 419 kts 305°
2026-04-20 12:48 49.05964 14.78473 33012 ft 420 kts 305°
2026-04-20 12:49 49.07698 14.74884 33282 ft 420 kts 305°
2026-04-20 12:49 49.09432 14.71295 33552 ft 420 kts 305°
2026-04-20 12:49 49.11166 14.67704 33833 ft 419 kts 305°
2026-04-20 12:49 49.12893 14.64116 33990 ft 419 kts 305°
2026-04-20 12:50 49.14608 14.60548 34041 ft 415 kts 305°
2026-04-20 12:50 49.18016 14.53438 34024 ft 413 kts 305°
2026-04-20 12:51 49.21410 14.46345 34027 ft 413 kts 305°
2026-04-20 12:51 49.24800 14.39245 34027 ft 413 kts 304°
2026-04-20 12:52 49.28162 14.32185 34034 ft 413 kts 305°
2026-04-20 12:52 49.31538 14.25083 34060 ft 412 kts 305°
2026-04-20 12:53 49.34907 14.17961 34031 ft 413 kts 305°
2026-04-20 12:53 49.38277 14.10819 34016 ft 414 kts 305°
2026-04-20 12:54 49.41658 14.03655 34016 ft 414 kts 305°
2026-04-20 12:54 49.45037 13.96479 34009 ft 415 kts 305°
2026-04-20 12:55 49.48411 13.89286 34025 ft 414 kts 304°
2026-04-20 12:55 49.51767 13.82090 34024 ft 413 kts 304°
2026-04-20 12:56 49.55115 13.74897 34044 ft 413 kts 304°
2026-04-20 12:56 49.58463 13.67695 34054 ft 413 kts 304°
2026-04-20 12:57 49.61801 13.60495 34087 ft 413 kts 304°
2026-04-20 12:57 49.65126 13.53308 34059 ft 414 kts 305°
2026-04-20 12:58 49.68475 13.46046 34065 ft 415 kts 305°
2026-04-20 12:58 49.71831 13.38755 34064 ft 416 kts 304°
2026-04-20 12:59 49.75182 13.31450 34074 ft 416 kts 304°
2026-04-20 12:59 49.78529 13.24131 34070 ft 417 kts 304°
2026-04-20 13:00 49.81851 13.16849 34064 ft 417 kts 304°
2026-04-20 13:00 49.85217 13.09458 34042 ft 417 kts 304°
2026-04-20 13:01 49.88528 13.02162 34049 ft 417 kts 304°
2026-04-20 13:01 49.91853 12.94801 34055 ft 416 kts 304°
2026-04-20 13:02 49.95177 12.87416 34054 ft 418 kts 304°
2026-04-20 13:02 49.98507 12.80015 34037 ft 418 kts 305°
2026-04-20 13:03 50.01838 12.72598 34040 ft 419 kts 305°
2026-04-20 13:03 50.05168 12.65160 34047 ft 419 kts 304°
2026-04-20 13:04 50.08493 12.57705 34051 ft 419 kts 304°
2026-04-20 13:04 50.11815 12.50230 34060 ft 419 kts 304°
2026-04-20 13:05 50.15098 12.42804 34058 ft 419 kts 304°
2026-04-20 13:05 50.18308 12.35240 34070 ft 418 kts 297°
2026-04-20 13:06 50.20197 12.26691 34071 ft 418 kts 285°
2026-04-20 13:06 50.21580 12.17862 34080 ft 418 kts 285°
2026-04-20 13:07 50.22961 12.09032 34076 ft 418 kts 285°
2026-04-20 13:07 50.24340 12.00201 34062 ft 418 kts 285°
2026-04-20 13:08 50.25718 11.91391 34087 ft 417 kts 285°
2026-04-20 13:08 50.27090 11.82582 34089 ft 417 kts 285°
2026-04-20 13:09 50.28448 11.73767 34094 ft 417 kts 285°
2026-04-20 13:09 50.29799 11.64997 34070 ft 418 kts 285°
2026-04-20 13:10 50.31142 11.56140 34057 ft 419 kts 284°
2026-04-20 13:10 50.32464 11.47265 34071 ft 419 kts 284°
2026-04-20 13:11 50.33779 11.38383 34084 ft 419 kts 284°
2026-04-20 13:11 50.35084 11.29496 34089 ft 419 kts 284°
2026-04-20 13:12 50.36382 11.20603 34089 ft 419 kts 284°
2026-04-20 13:12 50.37681 11.11719 34079 ft 419 kts 284°
2026-04-20 13:13 50.38978 11.02832 34086 ft 418 kts 284°
2026-04-20 13:13 50.40262 10.93942 34092 ft 418 kts 284°
2026-04-20 13:14 50.41536 10.85054 34096 ft 418 kts 284°
2026-04-20 13:14 50.42797 10.76217 34111 ft 418 kts 284°
2026-04-20 13:15 50.44060 10.67325 34093 ft 417 kts 283°
2026-04-20 13:15 50.45336 10.58450 34112 ft 416 kts 284°
2026-04-20 13:16 50.46624 10.49600 34117 ft 416 kts 286°
2026-04-20 13:16 50.48804 10.41246 34118 ft 414 kts 296°
2026-04-20 13:17 50.51271 10.33066 34116 ft 414 kts 295°
2026-04-20 13:17 50.53717 10.24876 34107 ft 414 kts 295°
2026-04-20 13:18 50.56167 10.16678 34115 ft 414 kts 295°
2026-04-20 13:18 50.58606 10.08479 34118 ft 414 kts 295°
2026-04-20 13:19 50.61044 10.00261 34057 ft 415 kts 295°
2026-04-20 13:19 50.62266 9.96145 33781 ft 415 kts 295°
2026-04-20 13:19 50.63473 9.92072 33511 ft 416 kts 295°
2026-04-20 13:19 50.64709 9.87890 33242 ft 416 kts 295°
2026-04-20 13:20 50.65915 9.83802 32977 ft 417 kts 295°
2026-04-20 13:20 50.67135 9.79653 32707 ft 418 kts 295°
2026-04-20 13:20 50.68355 9.75495 32442 ft 417 kts 295°
2026-04-20 13:20 50.69568 9.71355 32075 ft 414 kts 295°
2026-04-20 13:21 50.70780 9.67204 31509 ft 409 kts 295°
2026-04-20 13:21 50.71944 9.63204 30965 ft 405 kts 295°
2026-04-20 13:21 50.73120 9.59163 30386 ft 403 kts 295°
2026-04-20 13:21 50.74327 9.55187 29742 ft 401 kts 296°
2026-04-20 13:22 50.75573 9.51277 29191 ft 396 kts 297°
2026-04-20 13:22 50.76830 9.47434 28642 ft 392 kts 298°
2026-04-20 13:22 50.78078 9.43628 28091 ft 389 kts 298°
2026-04-20 13:22 50.79307 9.39840 27570 ft 386 kts 298°
2026-04-20 13:23 50.80517 9.36060 27037 ft 384 kts 297°
2026-04-20 13:23 50.81714 9.32292 26511 ft 383 kts 297°
2026-04-20 13:23 50.82903 9.28529 26014 ft 383 kts 297°
2026-04-20 13:23 50.84089 9.24749 25506 ft 383 kts 297°
2026-04-20 13:24 50.85276 9.20975 25017 ft 382 kts 297°
2026-04-20 13:24 50.86462 9.17223 24535 ft 381 kts 297°
2026-04-20 13:24 50.87646 9.13467 24048 ft 381 kts 297°
2026-04-20 13:24 50.88832 9.09710 23548 ft 381 kts 297°
2026-04-20 13:25 50.89998 9.06003 23045 ft 380 kts 297°
2026-04-20 13:25 50.91167 9.02272 22579 ft 377 kts 297°
2026-04-20 13:25 50.92329 8.98550 22115 ft 375 kts 297°
2026-04-20 13:25 50.93482 8.94854 21634 ft 373 kts 297°
2026-04-20 13:26 50.94632 8.91175 21149 ft 371 kts 297°
2026-04-20 13:26 50.95792 8.87522 20668 ft 370 kts 297°
2026-04-20 13:26 50.96963 8.83886 20175 ft 369 kts 298°
2026-04-20 13:26 50.98134 8.80261 19678 ft 369 kts 298°
2026-04-20 13:27 50.99285 8.76683 19192 ft 368 kts 298°
2026-04-20 13:27 51.00413 8.73037 18692 ft 368 kts 292°
2026-04-20 13:27 51.01111 8.69135 18167 ft 368 kts 279°
2026-04-20 13:27 51.01228 8.65095 17669 ft 366 kts 266°
2026-04-20 13:28 51.00846 8.61114 17177 ft 364 kts 260°
2026-04-20 13:28 51.00400 8.57158 16703 ft 362 kts 260°
2026-04-20 13:28 50.99966 8.53241 16233 ft 359 kts 261°
2026-04-20 13:28 50.99537 8.49346 15757 ft 356 kts 261°
2026-04-20 13:29 50.99249 8.46736 15447 ft 355 kts 262°
2026-04-20 13:29 50.98824 8.42901 14986 ft 352 kts 261°
2026-04-20 13:29 50.98395 8.39076 14512 ft 350 kts 261°
2026-04-20 13:29 50.97967 8.35287 14060 ft 348 kts 261°
2026-04-20 13:30 50.97549 8.31567 13565 ft 346 kts 262°
2026-04-20 13:30 50.96976 8.27829 13092 ft 344 kts 252°
2026-04-20 13:30 50.95986 8.24469 12791 ft 337 kts 243°
2026-04-20 13:30 50.94904 8.21213 12486 ft 330 kts 243°
2026-04-20 13:31 50.93854 8.18017 12184 ft 326 kts 244°
2026-04-20 13:31 50.92812 8.14840 11892 ft 323 kts 245°
2026-04-20 13:31 50.91775 8.11682 11576 ft 322 kts 244°
2026-04-20 13:31 50.90741 8.08543 11285 ft 320 kts 244°
2026-04-20 13:32 50.89709 8.05429 10990 ft 319 kts 243°
2026-04-20 13:32 50.88677 8.02325 10685 ft 317 kts 244°
2026-04-20 13:32 50.87653 7.99250 10416 ft 313 kts 244°
2026-04-20 13:32 50.86657 7.96255 10289 ft 301 kts 243°
2026-04-20 13:33 50.85700 7.93378 10109 ft 292 kts 244°
2026-04-20 13:33 50.84762 7.90555 10030 ft 289 kts 244°
2026-04-20 13:33 50.83827 7.87757 9802 ft 287 kts 244°
2026-04-20 13:33 50.82894 7.84970 9522 ft 285 kts 244°
2026-04-20 13:34 50.81970 7.82205 9326 ft 285 kts 244°
2026-04-20 13:34 50.81044 7.79433 9092 ft 284 kts 243°
2026-04-20 13:34 50.80131 7.76707 8861 ft 276 kts 244°
2026-04-20 13:34 50.79224 7.74003 8320 ft 280 kts 243°
2026-04-20 13:35 50.78310 7.71279 7889 ft 280 kts 244°
2026-04-20 13:35 50.77402 7.68573 7504 ft 278 kts 244°
2026-04-20 13:35 50.76506 7.65916 7129 ft 277 kts 244°
2026-04-20 13:35 50.75604 7.63238 6751 ft 275 kts 243°
2026-04-20 13:36 50.74709 7.60578 6365 ft 274 kts 244°
2026-04-20 13:36 50.73810 7.57906 5997 ft 270 kts 244°
2026-04-20 13:36 50.72953 7.55364 5708 ft 259 kts 245°
2026-04-20 13:36 50.72130 7.52935 5427 ft 243 kts 245°
2026-04-20 13:37 50.71539 7.50558 5140 ft 224 kts 261°
2026-04-20 13:37 50.71304 7.48179 4877 ft 217 kts 265°
2026-04-20 13:37 50.71092 7.45838 4564 ft 215 kts 264°
2026-04-20 13:37 50.70875 7.43499 4230 ft 215 kts 265°
2026-04-20 13:38 50.70659 7.41184 3970 ft 212 kts 265°
2026-04-20 13:38 50.70702 7.38923 3756 ft 203 kts 289°
2026-04-20 13:38 50.71339 7.37029 3633 ft 192 kts 313°
2026-04-20 13:38 50.72289 7.35619 3511 ft 185 kts 319°
2026-04-20 13:39 50.73226 7.34280 3396 ft 177 kts 318°
2026-04-20 13:39 50.74116 7.33003 3334 ft 170 kts 318°
2026-04-20 13:39 50.74978 7.31766 3163 ft 167 kts 318°
2026-04-20 13:39 50.75827 7.30544 2959 ft 164 kts 319°
2026-04-20 13:40 50.76664 7.29342 2758 ft 162 kts 318°
2026-04-20 13:40 50.77503 7.28134 2523 ft 164 kts 318°
2026-04-20 13:40 50.78344 7.26923 2301 ft 163 kts 317°
2026-04-20 13:40 50.79181 7.25718 2076 ft 163 kts 318°
2026-04-20 13:41 50.80005 7.24531 1852 ft 157 kts 318°
2026-04-20 13:41 50.80782 7.23411 1637 ft 146 kts 318°
2026-04-20 13:41 50.81518 7.22349 1448 ft 141 kts 320°
2026-04-20 13:41 50.82236 7.21313 1240 ft 138 kts 320°
2026-04-20 13:42 50.82945 7.20290 1050 ft 139 kts 318°
2026-04-20 13:42 50.84372 7.18230 676 ft 137 kts 318°
2026-04-20 13:42 50.85081 7.17204 483 ft 138 kts 316°
2026-04-20 13:43 50.85784 7.16187 315 ft 131 kts 317°
2026-04-20 13:43 50.86372 7.15336 285 ft 92 kts 317°
2026-04-20 13:43 50.86755 7.14783 268 ft 65 kts 317°
2026-04-20 13:43 50.87059 7.14343 253 ft 54 kts 317°
2026-04-20 13:44 50.87253 7.14033 244 ft 31 kts 305°
2026-04-20 13:44 50.87311 7.13780 239 ft 17 kts 282°
2026-04-20 13:44 50.87338 7.13573 235 ft 21 kts 281°
2026-04-20 13:44 50.87411 7.13375 232 ft 16 kts 318°
2026-04-20 13:45 50.87499 7.13249 233 ft 18 kts 317°
2026-04-20 13:45 50.87591 7.13110 233 ft 19 kts 316°
2026-04-20 13:45 50.87694 7.12961 233 ft 21 kts 319°
2026-04-20 13:45 50.87775 7.12846 232 ft 16 kts 312°
2026-04-20 13:46 50.87787 7.12725 232 ft 8 kts 274°
2026-04-20 13:46 50.87796 7.12627 232 ft 8 kts 288°
2026-04-20 13:46 50.87816 7.12541 232 ft 10 kts 287°
2026-04-20 13:46 50.87829 7.12480 232 ft 3 kts 288°
2026-04-20 13:47 50.87832 7.12464 232 ft 0 kts 288°
2026-04-20 13:47 50.87833 7.12457 233 ft 1 kts 288°
2026-04-20 13:47 50.87834 7.12454 235 ft 1 kts 288°
2026-04-20 13:47 50.87834 7.12452 234 ft 0 kts 288°